User: anonymous   Login
Location: Caltech
(34.1382°N, 118.1253°W)
Time: 18:46:36
(UTC-07:00)
Language:

Cosmos 1833 - Orbit

View from above orbital plane
View from above orbital plane
View from above satellite
View from above satellite

Ground track
Ground track

The orbit data is extracted from the following two-line orbital elements,

1 17589U 87027A   14304.76676031  .00000302  00000-0  18827-3 0  8535
2 17589 070.9204 040.8726 0012119 306.3451 214.0987 14.12839591424797
Epoch (UTC): 31 October 2014 18:24:08
Eccentricity: 0.0012119
inclination: 70.9204°
perigee height: 841 km
apogee height: 858 km
right ascension of ascending node: 40.8726°
argument of perigee: 306.3451°
revolutions per day: 14.12839591
mean anomaly at epoch: 214.0987°
orbit number at epoch: 42479

The dashed part of the orbit path shows where the satellite is in the earth's shadow,  

DLR